This is the latest recevied weather packets stored in our database for station/object WA2GUG. If no packets are shown the sender has not sent any weather packets the latest 10 day(s).
| Time | Temp. | Humidity | Pressure | Rain* | Wind** | Luminosity | Snow |
|---|---|---|---|---|---|---|---|
| 1778172565 | 21.67° C | 99% | 1006.2 hPa | - | - | - | - |
| 1778172265 | 21.67° C | 99% | 1007 hPa | - | - | - | - |
| 1778171965 | 21.11° C | 99% | 1007 hPa | - | - | - | - |
| 1778171665 | 20.56° C | 99% | 1007 hPa | - | - | - | - |
| 1778171365 | 19.44° C | 99% | 1007 hPa | - | - | - | - |
| 1778171065 | 19.44° C | 99% | 1006.2 hPa | - | - | - | - |
| 1778170765 | 20° C | 99% | 1007 hPa | - | - | - | - |
| 1778170465 | 19.44° C | 99% | 1006.2 hPa | - | - | - | - |
| 1778170165 | 18.89° C | 99% | 1007 hPa | - | - | - | - |
| 1778169864 | 18.89° C | 99% | 1007 hPa | - | - | - | - |
| 1778169565 | 19.44° C | 99% | 1007 hPa | - | - | - | - |
| 1778169265 | 20.56° C | 99% | 1007 hPa | - | - | - | - |
| 1778168964 | 20.56° C | 99% | 1007 hPa | - | - | - | - |
| 1778168665 | 20.56° C | 99% | 1007 hPa | - | - | - | - |
| 1778168365 | 20° C | 99% | 1007 hPa | - | - | - | - |
| 1778168065 | 19.44° C | 99% | 1007 hPa | - | - | - | - |
| 1778167765 | 19.44° C | 99% | 1007 hPa | - | - | - | - |
| 1778167465 | 19.44° C | 99% | 1007 hPa | - | - | - | - |
| 1778167165 | 20° C | 99% | 1007.1 hPa | - | - | - | - |
| 1778166865 | 19.44° C | 99% | 1007.1 hPa | - | - | - | - |
| 1778166565 | 19.44° C | 99% | 1007 hPa | - | - | - | - |
| 1778166265 | 20° C | 99% | 1007.2 hPa | - | - | - | - |
| 1778165964 | 19.44° C | 99% | 1007.2 hPa | - | - | - | - |
| 1778165665 | 18.89° C | 99% | 1008 hPa | - | - | - | - |
| 1778165364 | 18.89° C | 99% | 1007.2 hPa | - | - | - | - |
* Rain since midnight (hover to see other rain measurements)
** Current wind speed in m/s (hover to see current wind gust speed)